Location: Saint-Morand
(47.8012°N, 1.2794°W)
Time: 17:57:48
(UTC+00:00)

USA 186 - Pass Details

Date: 03 March 2021
Orbit: 261 x 429 km, 96.9° (Epoch: 15 April)

Event Time Altitude Azimuth Distance (km) Brightness Sun altitude
Exits shadow 19:59:54 20° 318° (NW) 758 3.7 -21.9°
Drops below altitude 10° 20:00:57 10° 332° (NNW) 1,169 4.6 -22.1°
Sets 20:02:57 0° 341° (NNW) 2,031 5.7 -22.4°
